CAPE
0 nan nan nan nan nan nan nan nan nan nan nan nan nan nan 2 nan nan 1 nan nan nan nan nan nan nan 0 9 12 12 16 21 24 24 22 17 15 15 15 14 14 15 14 11 11 8 6 5 5 5 5 6 8 8 10 11 11 13 18 21 21 22 26 27 27 29 30 30 30 30 31 28 26 26 20 19 18 18 19 20 20 21 22 24 24 27
0 nan nan nan nan nan nan nan nan nan nan nan nan nan 0 nan nan nan nan nan nan nan nan nan nan nan nan 6 13 13 16 19 23 23 22 16 15 15 13 13 13 12 12 8 8 4 2 0 0 0 1 3 6 6 9 10 10 13 16 17 17 19 21 24 24 26 28 29 29 29 28 26 23 23 20 19 20 20 21 23 23 25 27 30 30 34
nan nan nan nan nan nan nan nan nan nan nan nan nan nan nan nan nan nan nan 0 0 1 1 1 1 2 nan 2 13 13 13 18 22 22 18 14 13 13 12 11 11 12 8 4 4 0 nan nan nan nan 0 2 6 6 8 10 10 13 14 15 15 17 19 21 21 22 23 25 28 28 28 27 24 24 22 24 23 23 27 29 29 29 30 33 33 37
nan nan 0 nan nan nan nan nan nan nan nan nan nan nan nan nan 0 0 0 0 0 0 1 1 1 1 nan nan 3 3 12 17 20 20 17 13 11 11 10 10 10 7 2 nan nan nan nan nan nan nan 1 4 8 8 11 13 13 13 15 16 16 16 17 19 19 17 18 20 20 20 22 22 23 23 22 25 25 25 28 27 27 26 29 31 31 33
nan 0 0 0 0 0 nan 0 nan nan 1 0 0 0 nan nan 0 0 0 0 0 0 0 0 0 nan nan nan nan nan 6 16 20 20 18 11 8 8 8 4 4 1 nan nan nan nan nan nan nan 0 2 7 12 12 13 14 14 15 15 15 15 14 14 14 14 14 13 15 14 14 17 18 18 18 22 25 24 24 26 26 26 24 26 27 27 30
0 0 1 1 1 1 1 0 1 1 0 0 0 0 nan 0 0 0 1 0 0 0 0 nan nan nan nan nan nan nan 0 9 13 13 14 7 2 2 nan nan nan nan nan nan nan nan nan nan nan 2 6 11 15 15 14 15 15 13 13 12 12 12 12 12 12 12 11 12 12 12 13 13 15 15 18 19 20 20 22 23 23 22 24 25 25 29
0 0 1 1 1 1 1 0 1 1 0 0 0 0 0 0 0 0 0 1 1 1 nan nan nan nan nan nan nan nan nan nan 4 4 1 nan nan nan nan nan nan nan nan nan nan nan nan 0 0 4 9 13 14 14 14 13 13 11 11 10 10 10 9 8 8 8 8 8 9 9 10 10 12 12 12 12 14 14 15 18 18 20 24 25 25 28
0 0 nan nan nan 0 0 0 1 1 0 nan nan nan nan nan nan nan nan nan nan nan nan nan nan nan nan nan nan nan nan nan nan nan nan nan nan nan nan nan nan nan nan nan nan nan 0 3 3 8 11 11 11 11 9 6 6 4 2 2 2 2 1 1 1 2 2 3 3 3 4 4 5 5 7 8 9 9 10 13 13 18 24 29 29 33
nan nan nan nan nan nan nan 0 0 0 nan nan nan nan nan nan nan nan nan nan nan nan nan nan nan nan nan nan nan nan nan nan nan nan nan nan nan nan nan nan nan nan nan nan nan nan 0 2 2 5 6 5 4 4 2 1 1 0 0 0 0 0 0 0 0 0 1 2 2 2 3 5 5 5 7 8 8 8 9 13 13 18 23 28 28 34
nan nan 0 0 0 nan nan 0 0 0 nan nan nan nan nan nan nan nan nan nan nan nan nan nan nan nan nan nan nan nan nan nan nan nan nan nan nan nan nan nan nan nan nan nan nan nan nan 0 0 0 0 0 0 0 nan nan nan nan nan nan nan nan nan 0 0 0 1 2 3 3 4 6 7 7 8 9 10 10 11 13 13 16 21 26 26 30
nan nan nan nan nan nan nan nan 0 0 nan nan nan nan nan nan nan nan nan nan nan nan nan nan nan nan nan nan nan nan nan nan nan nan nan nan nan nan nan nan nan nan nan nan nan nan nan nan nan nan nan nan nan nan nan nan nan nan nan nan nan nan nan 0 0 0 1 3 5 5 7 9 9 9 10 10 11 11 12 13 13 15 18 20 20 25
nan nan nan nan nan nan nan nan nan nan nan nan nan nan nan nan nan nan nan nan nan nan nan nan nan nan nan nan nan nan nan nan nan nan nan nan nan nan nan nan nan nan nan nan nan nan nan nan nan nan nan nan nan nan nan nan nan nan nan nan nan nan nan 0 0 1 3 6 7 7 9 10 11 11 11 11 12 12 12 12 12 13 15 19 19 21
nan nan nan nan nan nan nan nan nan nan nan nan nan nan nan nan nan nan nan nan nan nan nan nan nan nan nan nan nan nan nan nan nan nan nan nan nan nan nan nan nan nan nan nan nan nan nan nan nan nan nan nan nan nan nan nan nan nan nan nan nan nan nan 1 1 3 4 7 8 8 10 11 11 11 10 10 11 11 12 12 12 12 13 16 16 18
nan nan nan nan nan nan nan nan nan nan nan nan nan nan nan nan nan nan nan nan nan nan nan nan nan nan nan nan nan nan nan nan nan nan nan nan nan nan nan nan nan nan nan nan nan nan nan nan nan nan nan nan nan nan nan nan nan nan nan nan nan nan 1 2 2 3 5 6 8 8 8 9 10 10 10 10 11 11 11 11 11 12 13 14 14 17
nan nan nan nan nan nan nan nan nan nan nan nan nan nan nan nan nan nan nan nan nan nan nan nan nan nan nan nan nan nan nan nan nan nan nan nan nan nan nan nan nan nan nan nan nan nan nan nan nan nan nan nan nan nan nan nan nan nan nan nan nan 0 1 2 2 2 4 5 6 6 8 8 8 8 9 10 10 10 11 11 11 11 13 14 14 16
nan nan nan nan nan nan nan nan nan nan nan nan nan nan nan nan nan nan nan nan nan nan nan nan nan nan nan nan nan nan nan nan nan nan nan nan nan nan nan nan nan nan nan nan nan nan nan nan nan nan nan nan nan nan nan nan nan nan nan nan nan nan 0 1 1 2 3 4 5 5 6 7 7 7 8 9 10 10 11 12 12 12 13 14 14 15
nan nan nan nan nan nan nan nan nan nan nan nan nan nan nan nan nan nan nan nan nan nan nan nan nan nan nan nan nan nan nan nan nan nan nan nan nan nan nan nan nan nan nan nan nan nan nan nan nan nan nan nan nan nan nan nan nan nan nan nan nan nan 0 0 0 1 2 4 5 5 6 7 8 8 8 9 11 11 13 13 13 14 15 16 16 17
nan nan nan nan nan nan nan nan nan nan nan nan nan nan nan nan nan nan nan nan nan nan nan nan nan nan nan nan nan nan nan nan nan nan nan nan nan nan nan nan nan nan nan nan nan nan nan nan nan nan nan nan nan nan nan nan nan nan nan nan nan nan nan 0 0 1 2 3 5 5 6 7 9 9 10 11 12 12 14 15 15 18 18 19 19 17
nan nan nan nan nan nan nan nan nan nan nan nan nan nan nan nan nan nan nan nan nan nan nan nan nan nan nan nan nan nan nan nan nan nan nan nan nan nan nan nan nan nan nan nan nan nan nan nan nan nan nan nan nan nan nan nan nan nan nan nan nan nan 0 0 0 2 3 5 7 7 8 9 10 10 11 11 12 12 14 15 15 17 19 18 18 18
nan nan nan nan nan nan nan nan nan nan nan nan nan nan nan nan nan nan nan nan nan nan nan nan nan nan nan nan nan nan nan nan nan nan nan nan nan nan nan nan nan nan nan nan nan nan nan nan nan nan nan nan nan nan nan nan nan nan nan nan nan 0 0 1 1 3 4 6 7 7 9 10 10 10 10 12 12 12 14 16 16 17 17 17 17 19
nan nan nan nan nan nan nan nan nan nan nan nan nan nan nan nan nan nan nan nan nan nan nan nan nan nan nan nan nan nan nan nan nan nan nan nan nan nan nan nan nan nan nan nan nan nan nan nan nan nan nan nan nan nan nan nan nan nan nan nan nan 0 0 2 2 3 5 7 8 8 8 9 10 10 10 11 11 11 13 14 14 15 16 18 18 18
nan nan nan nan nan nan nan nan nan nan nan nan nan nan nan nan nan nan nan nan nan nan nan nan nan nan nan nan nan nan nan nan nan nan nan nan nan nan nan nan nan nan nan nan nan nan nan nan nan nan nan nan nan nan nan nan nan nan nan nan nan 0 1 2 2 3 5 6 8 8 8 9 9 9 10 11 12 12 13 14 14 14 16 17 17 19
nan nan nan nan nan nan nan nan nan nan 0 nan nan nan nan nan nan nan nan nan nan nan nan nan nan nan nan nan nan nan nan nan nan nan nan nan nan nan nan nan nan nan nan nan nan nan nan nan nan nan nan nan nan nan nan nan nan nan nan nan nan 0 1 2 2 3 4 7 8 8 8 10 10 10 10 11 12 12 13 14 14 14 16 16 16 19
nan nan nan nan nan nan nan nan nan nan nan nan nan nan nan nan nan nan nan nan nan nan nan nan nan nan nan nan nan nan nan nan nan nan nan nan nan nan nan nan nan nan nan nan nan nan nan nan nan nan nan nan nan nan nan nan nan nan nan nan nan 0 1 2 2 3 4 6 8 8 8 10 11 11 11 11 12 12 13 14 14 15 16 18 18 20
nan nan nan nan nan nan nan nan nan nan nan nan nan nan nan nan nan nan nan nan nan nan nan nan nan nan nan nan nan nan nan nan nan nan nan nan nan nan nan nan nan nan nan nan nan nan nan nan nan nan nan nan nan nan nan nan nan nan nan nan nan 0 1 1 1 3 4 6 6 6 8 10 11 11 12 13 12 12 13 14 14 15 16 18 18 19
nan nan nan nan nan nan nan nan nan nan nan nan nan nan nan nan nan nan nan nan nan nan nan nan nan nan nan nan nan nan nan nan nan nan nan nan nan nan nan nan nan nan nan nan nan nan nan nan nan nan nan nan nan nan nan nan nan nan nan nan nan 0 1 1 1 2 3 4 6 6 7 9 10 10 13 12 13 13 14 14 14 16 16 17 17 18
nan nan 7 13 13 14 12 8 15 15 23 nan nan nan nan nan nan nan nan nan nan nan nan nan nan nan nan nan nan nan nan nan nan nan nan nan nan nan nan nan nan nan nan nan nan nan nan nan nan nan nan nan nan nan nan nan nan nan nan nan nan nan 0 1 1 1 2 3 4 4 6 8 9 9 11 12 13 13 14 15 15 16 17 16 16 19
nan nan nan nan nan nan nan nan nan nan 6 18 24 24 nan nan nan nan nan nan nan nan nan nan nan nan nan nan nan nan nan nan nan nan nan nan nan nan nan nan nan nan nan nan nan nan nan nan nan nan nan nan nan nan nan nan nan nan nan nan nan nan nan 0 0 0 1 1 2 2 4 6 8 8 11 12 13 13 13 14 14 15 17 11 11 3
nan nan nan nan nan nan nan nan nan nan nan 1 14 14 nan nan nan nan nan nan nan nan nan nan nan nan nan nan nan nan nan nan nan nan nan nan nan nan nan nan nan nan nan nan nan nan nan nan nan nan nan nan nan nan nan nan nan nan nan nan nan nan nan nan nan nan 0 1 2 2 3 5 8 8 10 12 13 13 13 14 14 16 12 6 6 nan
nan nan nan nan nan nan nan nan nan nan nan nan 1 1 nan nan nan nan nan nan nan nan nan nan nan nan nan nan nan nan nan nan nan nan nan nan nan nan nan nan nan nan nan nan nan nan nan nan nan nan nan nan nan nan nan nan nan nan nan nan nan nan nan nan nan nan 0 0 1 1 3 5 6 6 8 9 11 11 13 13 13 11 4 0 0 nan
nan nan nan nan nan nan nan nan nan nan nan nan nan nan nan nan nan nan nan nan nan nan nan nan nan nan nan nan nan nan nan nan nan nan nan nan nan nan nan nan nan nan nan nan nan nan nan nan nan nan nan nan nan nan nan nan nan nan nan nan nan nan nan nan nan nan 0 0 1 1 2 3 4 4 6 8 10 10 11 14 14 10 1 nan nan nan
nan nan nan nan nan nan nan nan nan nan nan nan nan nan nan nan nan nan nan nan nan nan nan nan nan nan nan nan nan nan nan nan nan nan nan nan nan nan nan nan nan nan nan nan nan nan nan nan nan nan nan nan nan nan nan nan nan nan nan nan nan nan nan nan nan nan nan nan 0 0 1 1 2 2 3 4 6 6 8 8 8 9 1 nan nan nan
nan nan nan nan nan nan nan nan nan nan nan nan nan nan nan nan nan nan nan nan nan nan nan nan nan nan nan nan nan nan nan nan nan nan nan nan nan nan nan nan nan nan nan nan nan nan nan nan nan nan nan nan nan nan nan nan nan nan nan nan nan nan nan nan nan nan nan nan nan nan 0 0 1 1 2 3 5 5 6 8 8 9 10 1 1 1
nan nan nan nan nan nan nan nan nan nan nan nan nan nan nan nan nan nan nan nan nan nan nan nan nan nan nan nan nan nan nan nan nan nan 1 nan nan nan nan nan nan nan nan nan nan nan nan nan nan nan nan nan nan nan nan nan nan nan nan nan nan nan nan nan nan nan nan nan nan nan nan nan nan nan 0 2 4 4 6 9 9 11 15 10 10 4
nan nan nan nan nan nan nan nan nan nan nan nan nan nan nan nan nan nan nan nan nan nan nan nan nan nan nan nan nan nan nan nan nan nan 3 nan nan nan nan nan nan nan nan nan nan nan nan nan nan nan nan nan nan nan nan nan nan nan nan nan nan nan nan nan nan nan nan nan nan nan nan nan nan nan nan nan 4 4 9 13 13 15 17 22 22 17
nan nan nan nan nan nan nan nan nan nan nan nan nan nan nan nan nan nan nan nan nan nan nan nan nan nan nan nan nan nan nan nan nan nan 3 nan nan nan nan nan nan nan nan nan nan nan nan nan nan 0 0 nan nan nan nan nan nan nan nan nan nan nan nan nan nan nan nan nan nan nan nan nan nan nan nan 3 10 10 13 13 13 15 16 19 19 19
nan nan nan nan nan nan nan nan nan nan nan nan nan nan nan nan nan nan nan nan nan nan nan nan nan nan nan nan nan nan nan nan nan nan 0 nan nan nan nan nan nan 0 nan nan nan nan nan nan nan nan nan nan nan nan nan nan nan nan nan nan nan nan nan nan nan nan nan nan nan nan nan nan nan nan nan 5 6 6 10 15 15 13 15 15 15 17
nan nan nan nan nan nan nan nan nan nan nan nan nan nan nan nan nan nan nan nan nan nan nan nan nan nan nan nan nan nan nan nan nan nan nan nan nan nan nan nan nan nan nan nan nan nan nan nan nan nan nan nan nan nan nan nan nan nan nan nan nan nan nan nan nan nan nan nan nan nan nan nan nan nan nan nan nan nan nan nan nan 1 10 10 10 17
nan nan nan nan nan nan nan nan nan nan nan nan nan nan nan nan nan nan nan nan nan nan nan nan nan nan nan nan nan nan nan nan nan nan nan nan nan nan nan nan nan nan nan nan nan nan nan nan nan nan nan nan nan nan nan nan nan nan nan nan nan nan nan nan nan nan nan nan nan nan nan nan nan nan nan nan nan nan nan nan nan nan nan nan nan 7
nan nan nan nan nan nan nan nan nan nan nan nan nan nan nan nan nan nan nan nan nan nan nan nan nan nan nan nan nan nan nan nan nan nan nan nan nan nan nan nan nan nan nan nan nan nan nan 0 0 0 1 nan nan nan nan nan nan nan 0 nan nan nan nan nan nan nan nan nan nan nan nan nan nan nan nan nan nan nan nan nan nan nan nan nan nan nan
nan nan nan nan nan nan nan nan nan nan nan nan nan nan nan nan nan nan nan nan nan nan nan nan nan nan nan nan nan nan nan nan nan nan nan nan nan nan nan nan nan nan nan nan nan 0 1 0 0 0 0 0 0 0 0 nan nan 2 3 nan nan nan nan nan nan nan nan nan nan nan nan nan 0 0 nan nan nan nan nan nan nan nan nan nan nan nan
nan nan nan nan nan nan nan nan nan nan nan nan nan nan nan nan nan nan nan nan nan nan nan nan nan nan nan nan nan nan nan nan nan nan nan nan nan nan nan nan nan nan nan nan nan nan 1 1 1 0 0 nan nan nan nan nan nan 0 2 nan nan nan 0 nan nan nan nan nan nan nan 1 nan nan nan nan nan nan nan nan nan nan nan 0 nan nan nan
nan nan nan nan nan nan nan nan nan nan nan nan nan nan nan nan nan nan nan nan nan nan nan nan nan nan nan nan nan nan nan nan nan nan nan nan nan nan nan nan nan nan nan nan nan nan nan 1 1 0 0 0 nan nan nan nan nan 0 nan 0 0 0 nan nan nan nan nan nan nan nan nan nan nan nan nan nan nan nan nan nan nan 4 3 nan nan nan
nan nan nan nan nan nan nan nan nan nan nan nan nan nan nan nan nan nan nan nan nan nan nan nan nan nan nan nan nan nan nan nan nan nan nan nan nan nan nan nan nan nan nan nan nan nan nan nan nan nan 0 0 nan nan nan nan nan nan nan nan nan 0 nan nan nan nan nan nan nan nan nan nan nan nan nan nan nan nan nan nan nan nan nan nan nan nan
nan nan nan 0 0 nan nan nan nan nan nan nan nan nan nan nan nan nan nan nan nan nan nan nan nan nan nan nan nan nan nan nan nan nan nan nan nan nan nan nan nan nan nan nan nan nan nan nan nan nan nan 0 0 0 nan nan nan nan 0 0 0 nan nan nan nan nan nan nan nan nan nan nan nan nan nan nan nan nan nan nan nan nan nan nan nan nan
nan nan 0 nan nan nan nan nan nan nan nan nan nan nan nan nan nan nan nan nan nan nan nan nan nan nan nan nan nan nan nan nan nan nan nan nan nan nan nan nan nan nan nan nan nan nan nan nan nan nan nan 0 0 0 nan nan nan nan nan 0 0 nan nan nan nan nan nan nan nan nan nan nan nan nan nan nan nan nan nan nan nan nan nan nan nan nan
nan nan nan nan nan nan nan nan nan nan nan nan nan nan nan nan nan nan nan nan nan nan nan nan nan nan nan nan nan nan nan nan nan nan nan nan nan nan nan nan nan nan nan nan nan nan nan nan nan nan nan nan nan nan nan nan nan nan nan nan nan nan nan nan nan nan nan nan nan nan nan nan nan nan nan nan nan nan nan nan nan nan nan nan nan nan
nan nan nan nan nan nan nan nan nan nan nan nan nan nan nan nan nan nan nan nan nan nan 0 nan nan nan nan nan nan nan nan nan nan nan nan nan nan nan nan nan nan nan nan nan nan nan nan nan nan nan nan nan nan nan nan nan nan nan nan nan nan nan nan nan nan nan nan nan nan nan nan nan nan nan nan nan nan nan nan nan nan nan nan nan nan nan
0 nan nan nan nan nan nan nan nan nan nan nan nan nan nan nan 2 2 nan nan nan nan nan nan nan nan nan nan nan nan 1 0 nan nan nan nan nan nan nan nan nan nan nan nan nan nan nan nan nan nan nan nan nan nan nan nan nan nan nan nan nan nan nan nan nan nan nan nan nan nan nan nan nan nan nan nan nan nan nan nan nan nan nan nan nan nan
nan nan nan nan nan nan nan nan nan nan nan nan nan nan nan nan nan nan nan nan nan nan nan nan nan nan nan nan nan nan 0 nan nan nan nan nan nan nan nan nan nan nan nan nan nan nan nan 0 0 1 8 1 nan nan nan nan nan nan nan nan nan nan nan nan nan nan nan nan nan nan nan nan nan nan nan nan nan nan nan nan nan nan nan nan nan nan
nan nan nan nan nan nan nan nan nan nan nan nan nan nan nan nan nan nan nan nan nan nan nan nan nan nan nan nan nan nan nan nan nan nan nan nan nan nan nan nan nan nan nan nan nan nan nan nan nan nan 0 16 2 2 nan nan nan nan nan nan nan nan nan nan nan nan nan nan nan nan nan nan nan nan nan nan nan nan nan nan nan nan nan nan nan nan
CIN
-0 nan nan nan nan nan nan nan nan nan nan nan nan nan nan -0 nan nan -0 nan nan nan nan nan nan nan -0 -0 -0 -0 -0 -0 -0 -0 -0 -0 -0 -0 -0 -0 -0 -0 -0 -0 -0 -0 -0 -0 -0 -0 -0 -0 -0 -0 -0 -0 -0 -0 -0 -0 -0 -0 -0 -0 -0 -0 -0 -0 -0 -0 -0 -0 -0 -0 -0 -0 -0 -0 -0 -0 -0 -0 -0 -0 -0 -0
-0 nan nan nan nan nan nan nan nan nan nan nan nan nan -0 nan nan nan nan nan nan nan nan nan nan nan nan -0 -0 -0 -0 -0 -0 -0 -0 -0 -0 -0 -0 -0 -0 -0 -0 -0 -0 -0 -0 -0 -0 -0 -0 -0 -0 -0 -0 -0 -0 -0 -0 -0 -0 -0 -0 -0 -0 -0 -0 -0 -0 -0 -0 -0 -0 -0 -0 -0 -0 -0 -0 -0 -0 -0 -0 -0 -0 -0
nan nan nan nan nan nan nan nan nan nan nan nan nan nan nan nan nan nan nan -0 -0 -0 -0 -0 -0 -0 nan -0 -0 -0 -0 -0 -0 -0 -0 -0 -0 -0 -0 -0 -0 -0 -0 -0 -0 -0 nan nan nan nan -0 -0 -0 -0 -0 -0 -0 -0 -0 -0 -0 -0 -0 -0 -0 -0 -0 -0 -0 -0 -0 -0 -0 -0 -0 -0 -0 -0 -0 -0 -0 -0 -0 -0 -0 -0
nan nan -0 nan nan nan nan nan nan nan nan nan nan nan nan nan -0 -0 -0 -0 -0 -0 -0 -1 -1 -0 nan nan -0 -0 -0 -0 -0 -0 -0 -0 -0 -0 -0 -0 -0 -0 -0 nan nan nan nan nan nan nan -0 -0 -0 -0 -0 -0 -0 -0 -0 -0 -0 -0 -0 -0 -0 -0 -0 -0 -0 -0 -0 -0 -0 -0 -0 -0 -0 -0 -0 -0 -0 -0 -0 -0 -0 -0
nan -0 -0 -0 -0 -0 nan -0 nan nan -0 -0 -0 -0 nan nan -0 -0 -0 -0 -0 -0 -0 -1 -1 nan nan nan nan nan -0 -0 -0 -0 -0 -0 -0 -0 -0 -0 -0 -0 nan nan nan nan nan nan nan -0 -0 -0 -0 -0 -0 -0 -0 -0 -0 -0 -0 -0 -0 -0 -0 -0 -0 -0 -0 -0 -0 -0 -0 -0 -0 -0 -0 -0 -0 -0 -0 -0 -0 -0 -0 -0
-0 -0 -0 -0 -0 -0 -0 -0 -0 -0 -0 -0 -0 -0 nan -0 -0 -0 -0 -0 -0 -0 -0 nan nan nan nan nan nan nan -0 -0 -0 -0 -0 -0 -0 -0 nan nan nan nan nan nan nan nan nan nan nan -0 -0 -0 -0 -0 -0 -0 -0 -0 -0 -0 -0 -0 -0 -0 -0 -0 -0 -0 -0 -0 -0 -0 -0 -0 -0 -0 -0 -0 -0 -0 -0 -0 -0 -0 -0 -0
-0 -0 -0 -0 -0 -0 -0 -0 -0 -0 -0 -0 -0 -0 -0 -0 -0 -0 -0 -0 -0 -0 nan nan nan nan nan nan nan nan nan nan -0 -0 -0 nan nan nan nan nan nan nan nan nan nan nan nan -0 -0 -0 -0 -0 -0 -0 -0 -0 -0 -0 -0 -0 -0 -0 -0 -0 -0 -0 -0 -0 -0 -0 -0 -0 -0 -0 -0 -0 -0 -0 -0 -0 -0 -0 -0 -0 -0 -0
-0 -0 nan nan nan -0 -0 -0 -0 -0 -0 nan nan nan nan nan nan nan nan nan nan nan nan nan nan nan nan nan nan nan nan nan nan nan nan nan nan nan nan nan nan nan nan nan nan nan -0 -0 -0 -0 -0 -0 -0 -0 -0 -0 -0 -0 -0 -0 -0 -0 -0 -0 -0 -0 -0 -0 -0 -0 -0 -0 -0 -0 -0 -0 -0 -0 -0 -0 -0 -0 -0 -0 -0 -0
nan nan nan nan nan nan nan -0 -0 -0 nan nan nan nan nan nan nan nan nan nan nan nan nan nan nan nan nan nan nan nan nan nan nan nan nan nan nan nan nan nan nan nan nan nan nan nan -0 -0 -0 -0 -0 -0 -0 -0 -0 -0 -0 -0 -0 -0 -0 -0 -0 -0 -0 -0 -0 -0 -0 -0 -0 -0 -0 -0 -0 -0 -0 -0 -0 -0 -0 -0 -0 -0 -0 -0
nan nan -0 -0 -0 nan nan -0 -0 -0 nan nan nan nan nan nan nan nan nan nan nan nan nan nan nan nan nan nan nan nan nan nan nan nan nan nan nan nan nan nan nan nan nan nan nan nan nan -0 -0 -0 -0 -0 -0 -0 nan nan nan nan nan nan nan nan nan -0 -0 -0 -0 -0 -0 -0 -0 -0 -0 -0 -0 -0 -0 -0 -0 -0 -0 -0 -0 -0 -0 -0
nan nan nan nan nan nan nan nan -0 -0 nan nan nan nan nan nan nan nan nan nan nan nan nan nan nan nan nan nan nan nan nan nan nan nan nan nan nan nan nan nan nan nan nan nan nan nan nan nan nan nan nan nan nan nan nan nan nan nan nan nan nan nan nan -0 -0 -0 -0 -0 -0 -0 -0 -0 -0 -0 -0 -0 -0 -0 -0 -0 -0 -0 -0 -0 -0 -0
nan nan nan nan nan nan nan nan nan nan nan nan nan nan nan nan nan nan nan nan nan nan nan nan nan nan nan nan nan nan nan nan nan nan nan nan nan nan nan nan nan nan nan nan nan nan nan nan nan nan nan nan nan nan nan nan nan nan nan nan nan nan nan -0 -0 -0 -0 -0 -0 -0 -0 -0 -0 -0 -0 -0 -0 -0 -0 -0 -0 -0 -0 -0 -0 -0
nan nan nan nan nan nan nan nan nan nan nan nan nan nan nan nan nan nan nan nan nan nan nan nan nan nan nan nan nan nan nan nan nan nan nan nan nan nan nan nan nan nan nan nan nan nan nan nan nan nan nan nan nan nan nan nan nan nan nan nan nan nan nan -0 -0 -0 -0 -0 -0 -0 -0 -0 -0 -0 -0 -0 -0 -0 -0 -0 -0 -0 -0 -0 -0 -0
nan nan nan nan nan nan nan nan nan nan nan nan nan nan nan nan nan nan nan nan nan nan nan nan nan nan nan nan nan nan nan nan nan nan nan nan nan nan nan nan nan nan nan nan nan nan nan nan nan nan nan nan nan nan nan nan nan nan nan nan nan nan -0 -0 -0 -0 -0 -0 -0 -0 -0 -0 -0 -0 -0 -0 -0 -0 -0 -0 -0 -0 -0 -0 -0 -0
nan nan nan nan nan nan nan nan nan nan nan nan nan nan nan nan nan nan nan nan nan nan nan nan nan nan nan nan nan nan nan nan nan nan nan nan nan nan nan nan nan nan nan nan nan nan nan nan nan nan nan nan nan nan nan nan nan nan nan nan nan -0 -0 -0 -0 -0 -0 -0 -0 -0 -0 -0 -0 -0 -0 -0 -0 -0 -0 -0 -0 -0 -0 -0 -0 -0
nan nan nan nan nan nan nan nan nan nan nan nan nan nan nan nan nan nan nan nan nan nan nan nan nan nan nan nan nan nan nan nan nan nan nan nan nan nan nan nan nan nan nan nan nan nan nan nan nan nan nan nan nan nan nan nan nan nan nan nan nan nan -0 -0 -0 -0 -0 -0 -0 -0 -0 -0 -0 -0 -0 -0 -0 -0 -0 -0 -0 -0 -0 -0 -0 -0
nan nan nan nan nan nan nan nan nan nan nan nan nan nan nan nan nan nan nan nan nan nan nan nan nan nan nan nan nan nan nan nan nan nan nan nan nan nan nan nan nan nan nan nan nan nan nan nan nan nan nan nan nan nan nan nan nan nan nan nan nan nan -0 -0 -0 -0 -0 -0 -0 -0 -0 -0 -0 -0 -0 -0 -0 -0 -0 -0 -0 -0 -0 -0 -0 -0
nan nan nan nan nan nan nan nan nan nan nan nan nan nan nan nan nan nan nan nan nan nan nan nan nan nan nan nan nan nan nan nan nan nan nan nan nan nan nan nan nan nan nan nan nan nan nan nan nan nan nan nan nan nan nan nan nan nan nan nan nan nan nan -0 -0 -0 -0 -0 -0 -0 -0 -0 -0 -0 -0 -0 -0 -0 -0 -0 -0 -0 -0 -0 -0 -0
nan nan nan nan nan nan nan nan nan nan nan nan nan nan nan nan nan nan nan nan nan nan nan nan nan nan nan nan nan nan nan nan nan nan nan nan nan nan nan nan nan nan nan nan nan nan nan nan nan nan nan nan nan nan nan nan nan nan nan nan nan nan -0 -0 -0 -0 -0 -0 -0 -0 -0 -0 -0 -0 -0 -0 -0 -0 -0 -0 -0 -0 -0 -0 -0 -0
nan nan nan nan nan nan nan nan nan nan nan nan nan nan nan nan nan nan nan nan nan nan nan nan nan nan nan nan nan nan nan nan nan nan nan nan nan nan nan nan nan nan nan nan nan nan nan nan nan nan nan nan nan nan nan nan nan nan nan nan nan -0 -0 -0 -0 -0 -0 -0 -0 -0 -0 -0 -0 -0 -0 -0 -0 -0 -0 -0 -0 -0 -0 -0 -0 -0
nan nan nan nan nan nan nan nan nan nan nan nan nan nan nan nan nan nan nan nan nan nan nan nan nan nan nan nan nan nan nan nan nan nan nan nan nan nan nan nan nan nan nan nan nan nan nan nan nan nan nan nan nan nan nan nan nan nan nan nan nan -0 -0 -0 -0 -0 -0 -0 -0 -0 -0 -0 -0 -0 -0 -0 -0 -0 -0 -0 -0 -0 -0 -0 -0 -0
nan nan nan nan nan nan nan nan nan nan nan nan nan nan nan nan nan nan nan nan nan nan nan nan nan nan nan nan nan nan nan nan nan nan nan nan nan nan nan nan nan nan nan nan nan nan nan nan nan nan nan nan nan nan nan nan nan nan nan nan nan -0 -0 -0 -0 -0 -0 -0 -0 -0 -0 -0 -0 -0 -0 -0 -0 -0 -0 -0 -0 -0 -0 -0 -0 -0
nan nan nan nan nan nan nan nan nan nan -0 nan nan nan nan nan nan nan nan nan nan nan nan nan nan nan nan nan nan nan nan nan nan nan nan nan nan nan nan nan nan nan nan nan nan nan nan nan nan nan nan nan nan nan nan nan nan nan nan nan nan -0 -0 -0 -0 -0 -0 -0 -0 -0 -0 -0 -0 -0 -0 -0 -0 -0 -0 -0 -0 -0 -0 -0 -0 -0
nan nan nan nan nan nan nan nan nan nan nan nan nan nan nan nan nan nan nan nan nan nan nan nan nan nan nan nan nan nan nan nan nan nan nan nan nan nan nan nan nan nan nan nan nan nan nan nan nan nan nan nan nan nan nan nan nan nan nan nan nan -0 -0 -0 -0 -0 -0 -0 -0 -0 -0 -0 -0 -0 -0 -0 -0 -0 -0 -0 -0 -0 -0 -0 -0 -0
nan nan nan nan nan nan nan nan nan nan nan nan nan nan nan nan nan nan nan nan nan nan nan nan nan nan nan nan nan nan nan nan nan nan nan nan nan nan nan nan nan nan nan nan nan nan nan nan nan nan nan nan nan nan nan nan nan nan nan nan nan -0 -0 -0 -0 -0 -0 -0 -0 -0 -0 -0 -0 -0 -0 -0 -0 -0 -0 -0 -0 -0 -0 -0 -0 -0
nan nan nan nan nan nan nan nan nan nan nan nan nan nan nan nan nan nan nan nan nan nan nan nan nan nan nan nan nan nan nan nan nan nan nan nan nan nan nan nan nan nan nan nan nan nan nan nan nan nan nan nan nan nan nan nan nan nan nan nan nan -0 -0 -0 -0 -0 -0 -0 -0 -0 -0 -0 -0 -0 -0 -0 -0 -0 -0 -0 -0 -0 -0 -0 -0 -0
nan nan -0 -0 -0 -0 -0 -0 -0 -0 -0 nan nan nan nan nan nan nan nan nan nan nan nan nan nan nan nan nan nan nan nan nan nan nan nan nan nan nan nan nan nan nan nan nan nan nan nan nan nan nan nan nan nan nan nan nan nan nan nan nan nan nan -0 -0 -0 -0 -0 -0 -0 -0 -0 -0 -0 -0 -0 -0 -0 -0 -0 -0 -0 -0 -0 -0 -0 -0
nan nan nan nan nan nan nan nan nan nan -0 -0 -0 -0 nan nan nan nan nan nan nan nan nan nan nan nan nan nan nan nan nan nan nan nan nan nan nan nan nan nan nan nan nan nan nan nan nan nan nan nan nan nan nan nan nan nan nan nan nan nan nan nan nan -0 -0 -0 -0 -0 -0 -0 -0 -0 -0 -0 -0 -0 -0 -0 -0 -0 -0 -0 -0 -0 -0 -8
nan nan nan nan nan nan nan nan nan nan nan -0 -0 -0 nan nan nan nan nan nan nan nan nan nan nan nan nan nan nan nan nan nan nan nan nan nan nan nan nan nan nan nan nan nan nan nan nan nan nan nan nan nan nan nan nan nan nan nan nan nan nan nan nan nan nan nan -0 -0 -0 -0 -0 -0 -0 -0 -0 -0 -0 -0 -0 -0 -0 -0 -0 -0 -0 nan
nan nan nan nan nan nan nan nan nan nan nan nan -0 -0 nan nan nan nan nan nan nan nan nan nan nan nan nan nan nan nan nan nan nan nan nan nan nan nan nan nan nan nan nan nan nan nan nan nan nan nan nan nan nan nan nan nan nan nan nan nan nan nan nan nan nan nan -0 -0 -0 -0 -0 -0 -0 -0 -0 -0 -0 -0 -0 -0 -0 -0 -0 -11 -11 nan
nan nan nan nan nan nan nan nan nan nan nan nan nan nan nan nan nan nan nan nan nan nan nan nan nan nan nan nan nan nan nan nan nan nan nan nan nan nan nan nan nan nan nan nan nan nan nan nan nan nan nan nan nan nan nan nan nan nan nan nan nan nan nan nan nan nan -0 -0 -0 -0 -0 -0 -0 -0 -0 -0 -0 -0 -0 -0 -0 -0 -10 nan nan nan
nan nan nan nan nan nan nan nan nan nan nan nan nan nan nan nan nan nan nan nan nan nan nan nan nan nan nan nan nan nan nan nan nan nan nan nan nan nan nan nan nan nan nan nan nan nan nan nan nan nan nan nan nan nan nan nan nan nan nan nan nan nan nan nan nan nan nan nan -0 -0 -0 -0 -0 -0 -0 -0 -0 -0 -0 -0 -0 -0 -8 nan nan nan
nan nan nan nan nan nan nan nan nan nan nan nan nan nan nan nan nan nan nan nan nan nan nan nan nan nan nan nan nan nan nan nan nan nan nan nan nan nan nan nan nan nan nan nan nan nan nan nan nan nan nan nan nan nan nan nan nan nan nan nan nan nan nan nan nan nan nan nan nan nan -0 -0 -0 -0 -0 -0 -0 -0 -0 -0 -0 -0 -0 -14 -14 -13
nan nan nan nan nan nan nan nan nan nan nan nan nan nan nan nan nan nan nan nan nan nan nan nan nan nan nan nan nan nan nan nan nan nan -10 nan nan nan nan nan nan nan nan nan nan nan nan nan nan nan nan nan nan nan nan nan nan nan nan nan nan nan nan nan nan nan nan nan nan nan nan nan nan nan -0 -0 -0 -0 -0 -0 -0 -0 -0 -0 -0 -7
nan nan nan nan nan nan nan nan nan nan nan nan nan nan nan nan nan nan nan nan nan nan nan nan nan nan nan nan nan nan nan nan nan nan -11 nan nan nan nan nan nan nan nan nan nan nan nan nan nan nan nan nan nan nan nan nan nan nan nan nan nan nan nan nan nan nan nan nan nan nan nan nan nan nan nan nan -0 -0 -0 -0 -0 -0 -0 -0 -0 -0
nan nan nan nan nan nan nan nan nan nan nan nan nan nan nan nan nan nan nan nan nan nan nan nan nan nan nan nan nan nan nan nan nan nan -7 nan nan nan nan nan nan nan nan nan nan nan nan nan nan -0 -0 nan nan nan nan nan nan nan nan nan nan nan nan nan nan nan nan nan nan nan nan nan nan nan nan -0 -0 -0 -0 -0 -0 -0 -0 -0 -0 -0
nan nan nan nan nan nan nan nan nan nan nan nan nan nan nan nan nan nan nan nan nan nan nan nan nan nan nan nan nan nan nan nan nan nan -15 nan nan nan nan nan nan -5 nan nan nan nan nan nan nan nan nan nan nan nan nan nan nan nan nan nan nan nan nan nan nan nan nan nan nan nan nan nan nan nan nan -0 -0 -0 -0 -0 -0 -0 -0 -0 -0 -0
nan nan nan nan nan nan nan nan nan nan nan nan nan nan nan nan nan nan nan nan nan nan nan nan nan nan nan nan nan nan nan nan nan nan nan nan nan nan nan nan nan nan nan nan nan nan nan nan nan nan nan nan nan nan nan nan nan nan nan nan nan nan nan nan nan nan nan nan nan nan nan nan nan nan nan nan nan nan nan nan nan -2 -0 -0 -0 -0
nan nan nan nan nan nan nan nan nan nan nan nan nan nan nan nan nan nan nan nan nan nan nan nan nan nan nan nan nan nan nan nan nan nan nan nan nan nan nan nan nan nan nan nan nan nan nan nan nan nan nan nan nan nan nan nan nan nan nan nan nan nan nan nan nan nan nan nan nan nan nan nan nan nan nan nan nan nan nan nan nan nan nan nan nan -0
nan nan nan nan nan nan nan nan nan nan nan nan nan nan nan nan nan nan nan nan nan nan nan nan nan nan nan nan nan nan nan nan nan nan nan nan nan nan nan nan nan nan nan nan nan nan nan -5 -5 -3 -1 nan nan nan nan nan nan nan -1 nan nan nan nan nan nan nan nan nan nan nan nan nan nan nan nan nan nan nan nan nan nan nan nan nan nan nan
nan nan nan nan nan nan nan nan nan nan nan nan nan nan nan nan nan nan nan nan nan nan nan nan nan nan nan nan nan nan nan nan nan nan nan nan nan nan nan nan nan nan nan nan nan -9 -7 -6 -6 -5 -5 -7 -3 -3 -3 nan nan -0 -0 nan nan nan nan nan nan nan nan nan nan nan nan nan -12 -12 nan nan nan nan nan nan nan nan nan nan nan nan
nan nan nan nan nan nan nan nan nan nan nan nan nan nan nan nan nan nan nan nan nan nan nan nan nan nan nan nan nan nan nan nan nan nan nan nan nan nan nan nan nan nan nan nan nan nan -6 -4 -4 -4 -6 nan nan nan nan nan nan -2 -0 nan nan nan -3 nan nan nan nan nan nan nan -4 nan nan nan nan nan nan nan nan nan nan nan -9 nan nan nan
nan nan nan nan nan nan nan nan nan nan nan nan nan nan nan nan nan nan nan nan nan nan nan nan nan nan nan nan nan nan nan nan nan nan nan nan nan nan nan nan nan nan nan nan nan nan nan -2 -2 -6 -7 -8 nan nan nan nan nan -5 nan -4 -4 -4 nan nan nan nan nan nan nan nan nan nan nan nan nan nan nan nan nan nan nan -2 -2 nan nan nan
nan nan nan nan nan nan nan nan nan nan nan nan nan nan nan nan nan nan nan nan nan nan nan nan nan nan nan nan nan nan nan nan nan nan nan nan nan nan nan nan nan nan nan nan nan nan nan nan nan nan -10 -9 nan nan nan nan nan nan nan nan nan -5 nan nan nan nan nan nan nan nan nan nan nan nan nan nan nan nan nan nan nan nan nan nan nan nan
nan nan nan -6 -6 nan nan nan nan nan nan nan nan nan nan nan nan nan nan nan nan nan nan nan nan nan nan nan nan nan nan nan nan nan nan nan nan nan nan nan nan nan nan nan nan nan nan nan nan nan nan -10 -7 -7 nan nan nan nan -2 -3 -3 nan nan nan nan nan nan nan nan nan nan nan nan nan nan nan nan nan nan nan nan nan nan nan nan nan
nan nan -9 nan nan nan nan nan nan nan nan nan nan nan nan nan nan nan nan nan nan nan nan nan nan nan nan nan nan nan nan nan nan nan nan nan nan nan nan nan nan nan nan nan nan nan nan nan nan nan nan -9 -9 -9 nan nan nan nan nan -3 -3 nan nan nan nan nan nan nan nan nan nan nan nan nan nan nan nan nan nan nan nan nan nan nan nan nan
nan nan nan nan nan nan nan nan nan nan nan nan nan nan nan nan nan nan nan nan nan nan nan nan nan nan nan nan nan nan nan nan nan nan nan nan nan nan nan nan nan nan nan nan nan nan nan nan nan nan nan nan nan nan nan nan nan nan nan nan nan nan nan nan nan nan nan nan nan nan nan nan nan nan nan nan nan nan nan nan nan nan nan nan nan nan
nan nan nan nan nan nan nan nan nan nan nan nan nan nan nan nan nan nan nan nan nan nan -1 nan nan nan nan nan nan nan nan nan nan nan nan nan nan nan nan nan nan nan nan nan nan nan nan nan nan nan nan nan nan nan nan nan nan nan nan nan nan nan nan nan nan nan nan nan nan nan nan nan nan nan nan nan nan nan nan nan nan nan nan nan nan nan
-9 nan nan nan nan nan nan nan nan nan nan nan nan nan nan nan -0 -0 nan nan nan nan nan nan nan nan nan nan nan nan -1 -0 nan nan nan nan nan nan nan nan nan nan nan nan nan nan nan nan nan nan nan nan nan nan nan nan nan nan nan nan nan nan nan nan nan nan nan nan nan nan nan nan nan nan nan nan nan nan nan nan nan nan nan nan nan nan
nan nan nan nan nan nan nan nan nan nan nan nan nan nan nan nan nan nan nan nan nan nan nan nan nan nan nan nan nan nan -4 nan nan nan nan nan nan nan nan nan nan nan nan nan nan nan nan -17 -17 -12 -4 -5 nan nan nan nan nan nan nan nan nan nan nan nan nan nan nan nan nan nan nan nan nan nan nan nan nan nan nan nan nan nan nan nan nan nan
nan nan nan nan nan nan nan nan nan nan nan nan nan nan nan nan nan nan nan nan nan nan nan nan nan nan nan nan nan nan nan nan nan nan nan nan nan nan nan nan nan nan nan nan nan nan nan nan nan nan -13 -0 -5 -5 nan nan nan nan nan nan nan nan nan nan nan nan nan nan nan nan nan nan nan nan nan nan nan nan nan nan nan nan nan nan nan nan
Wind_Speed
1 1 2 2 3 2 2 2 2 2 2 2 2 2 3 4 4 3 4 4 4 4 4 4 3 1 1 3 5 6 7 8 9 9 10 10 10 11 11 10 10 9 8 8 8 8 8 9 10 11 12 13 13 13 13 12 11 11 11 11 10 10 10 10 10 11 11 11 11 11 11 11 11 11 11 11 11 11 11 11 11 11 11 11 12 12
1 1 1 2 2 2 2 2 2 2 2 2 2 2 3 3 3 3 3 4 4 4 3 3 2 1 1 4 6 7 8 9 9 10 10 11 11 11 10 10 9 8 8 7 7 8 9 10 11 12 12 13 13 13 12 12 11 11 11 10 10 10 10 10 10 10 10 11 11 11 11 11 11 11 11 11 11 11 11 11 11 11 12 12 12 12
1 1 1 1 2 2 2 2 2 2 2 2 2 3 3 3 3 2 2 3 3 3 2 2 1 1 2 4 6 8 9 10 10 11 11 11 11 10 10 9 8 8 7 8 8 9 10 11 11 12 13 13 13 13 12 12 11 11 10 10 10 10 10 10 10 10 10 10 10 10 10 11 11 11 11 11 12 12 12 12 12 12 12 12 12 12
1 1 1 1 1 2 2 2 2 2 3 3 3 3 3 3 2 2 2 2 2 2 1 1 2 2 2 3 5 7 10 11 11 12 12 11 10 9 8 8 7 7 8 8 9 10 11 11 12 13 13 13 13 12 12 11 11 11 10 10 10 10 10 10 10 10 10 10 10 10 10 11 11 11 11 12 12 12 12 12 12 12 12 12 12 12
1 1 1 1 2 2 2 2 2 3 3 3 3 3 2 2 2 2 2 2 1 1 1 2 2 3 2 2 4 7 10 12 13 13 13 10 9 7 7 7 7 8 8 9 10 11 11 12 12 13 13 13 12 12 11 11 11 10 10 10 10 10 10 10 10 10 10 10 10 10 11 11 11 11 11 11 12 12 12 12 12 12 12 12 12 13
1 2 2 2 2 2 2 2 2 2 2 2 2 2 2 2 1 1 1 1 1 1 1 2 2 3 3 3 5 8 11 12 13 12 10 8 6 6 6 7 8 9 9 10 11 11 12 12 12 12 12 12 12 11 11 11 10 10 10 10 10 10 10 10 10 10 10 10 10 11 11 11 11 11 11 11 11 11 12 12 12 12 12 12 12 13
1 2 2 2 2 1 1 1 2 2 2 2 2 2 1 1 1 1 0 0 1 1 2 2 2 2 3 4 6 8 9 10 9 7 5 4 4 5 6 7 8 9 10 10 11 11 11 11 11 11 11 11 11 11 11 11 10 10 10 10 10 10 10 10 10 10 11 11 11 11 11 11 11 11 11 11 11 11 11 12 12 12 12 12 13 13
1 1 2 1 1 1 1 1 1 1 1 1 1 1 1 1 0 0 0 1 1 1 2 2 2 2 2 3 3 5 5 5 3 1 2 2 3 4 5 7 8 9 9 10 10 10 11 11 11 11 11 11 11 11 11 11 11 11 11 10 10 10 10 10 11 11 11 11 11 11 11 11 11 11 11 11 11 11 11 11 12 12 12 12 13 13
2 1 1 1 1 1 1 1 1 1 1 1 1 1 1 0 0 0 1 1 1 1 2 2 2 2 2 1 1 2 3 2 1 0 1 1 1 3 4 6 7 8 9 9 10 10 10 10 11 11 11 11 11 11 11 11 11 11 11 10 10 10 10 11 11 11 11 11 11 11 11 11 11 11 11 11 11 11 11 11 12 12 13 13 13 13
2 2 1 1 1 1 1 1 0 1 1 1 1 1 1 1 1 1 1 2 1 1 1 2 2 2 2 1 1 1 2 1 1 1 2 2 2 3 4 5 6 7 8 9 10 10 10 11 11 11 12 12 12 11 11 11 10 10 10 10 10 10 10 10 11 11 11 11 11 11 11 11 11 11 11 11 11 11 11 12 12 13 13 13 14 14
1 1 1 1 0 0 1 1 1 1 1 1 0 0 1 1 1 1 2 2 2 1 0 1 1 1 1 1 1 1 1 2 2 3 4 4 4 4 4 5 6 7 8 9 10 10 11 11 12 12 11 11 11 11 10 10 10 10 10 10 10 10 10 10 11 11 11 11 11 11 11 12 12 12 12 12 12 12 12 12 13 13 13 14 14 14
1 1 1 1 1 0 0 0 1 1 1 1 0 1 2 2 2 2 3 2 2 1 1 1 1 0 0 0 1 2 2 2 2 2 3 3 3 3 3 4 5 6 7 8 9 10 11 11 11 11 11 10 10 10 9 9 9 10 10 10 10 10 10 10 11 11 11 11 11 11 12 12 12 12 12 12 12 12 13 13 13 13 14 14 14 15
1 1 1 1 1 0 0 1 1 1 1 1 1 2 2 1 1 1 2 1 1 0 1 1 1 1 1 1 1 1 1 1 1 2 2 2 2 2 2 2 2 3 3 4 5 6 8 10 10 10 10 10 10 10 10 10 10 10 10 10 10 10 10 10 11 11 11 11 11 12 12 12 12 12 12 12 13 13 13 13 14 14 14 14 15 15
1 1 1 1 0 0 0 1 1 1 1 1 1 1 1 0 1 1 2 1 1 1 1 1 2 2 2 1 1 1 1 1 1 2 2 2 1 1 0 1 2 2 2 2 3 4 7 7 7 7 9 9 10 10 10 10 10 10 10 10 10 10 11 11 11 11 11 12 12 12 12 12 12 13 13 13 13 13 14 14 14 14 15 15 15 15
1 1 1 0 0 0 0 0 1 1 1 0 0 0 0 1 1 1 2 1 1 2 2 2 2 2 2 2 1 1 1 1 1 1 2 2 2 1 1 1 2 2 2 2 3 4 6 5 4 5 6 8 8 9 10 10 10 11 11 11 11 11 11 11 11 11 12 12 12 12 12 13 13 13 13 13 13 14 14 14 14 15 15 15 16 16
1 1 1 0 1 1 1 0 0 0 0 0 1 1 1 1 1 1 2 1 1 2 3 3 2 3 3 2 1 1 1 1 1 1 1 2 2 1 2 1 2 2 2 2 3 3 4 3 4 4 5 8 10 11 11 11 11 11 11 11 11 11 11 11 12 12 12 12 12 13 13 13 13 13 13 14 14 14 14 15 15 15 15 16 16 16
1 1 1 0 1 1 1 1 0 0 0 0 1 1 1 1 1 1 2 1 1 2 2 2 1 1 2 3 2 1 1 2 1 0 1 3 2 1 2 1 2 3 3 3 3 3 3 3 4 4 5 8 10 11 11 11 11 11 12 12 12 12 12 12 12 12 12 13 13 13 13 13 13 14 14 14 14 14 15 15 15 15 16 16 16 16
1 1 1 1 1 1 1 1 1 0 0 0 1 1 1 1 1 1 1 2 2 2 2 2 1 1 1 2 2 2 1 1 1 1 2 3 3 2 1 2 2 3 3 3 3 3 3 4 4 4 6 9 10 11 11 12 12 12 12 12 12 12 12 12 13 13 13 13 13 13 13 13 14 14 14 14 14 15 15 15 15 15 16 16 16 16
0 0 1 1 1 1 1 1 1 0 0 1 1 1 1 1 1 1 2 2 2 2 2 2 1 1 1 2 2 2 0 1 1 1 3 4 3 2 1 1 2 2 3 3 3 3 4 4 5 7 9 10 11 12 12 13 13 13 13 13 13 13 13 13 13 13 13 13 13 13 13 13 14 14 14 14 14 15 15 15 15 16 16 16 16 17
0 0 1 2 1 0 1 1 1 1 1 2 2 2 1 1 1 2 1 1 1 2 2 2 1 1 2 2 3 2 0 1 1 1 2 3 3 2 1 1 1 2 3 3 3 3 3 3 4 6 9 10 11 12 13 13 13 13 13 13 13 13 13 13 13 13 13 13 13 13 13 13 14 14 14 14 14 15 15 15 16 16 16 17 17 17
1 1 2 2 2 1 0 1 2 2 2 2 2 2 2 1 1 1 0 1 1 1 1 1 2 2 2 2 3 2 1 1 1 1 2 3 3 2 1 1 1 1 3 3 3 3 3 3 3 4 6 9 12 13 14 14 14 13 13 13 13 13 13 13 13 13 13 13 13 13 13 13 14 14 14 14 15 15 15 16 16 16 17 17 17 17
1 1 2 3 3 2 2 2 3 3 3 3 3 2 2 1 1 1 1 1 2 2 2 2 3 2 2 2 3 2 1 2 1 1 1 2 3 3 1 0 0 1 3 3 3 2 2 2 3 4 6 10 12 14 14 14 14 13 13 13 13 12 12 12 12 12 12 12 13 13 13 13 14 14 15 15 15 15 16 16 16 16 17 17 17 17
2 1 2 2 3 3 2 2 2 2 3 3 3 3 3 3 2 2 2 3 3 3 2 2 2 1 1 2 2 2 1 1 2 2 0 2 3 3 1 0 0 1 3 3 3 2 2 2 3 4 7 11 13 14 14 14 13 13 12 12 12 12 11 11 11 12 12 12 13 13 14 14 14 15 15 15 16 16 16 16 16 16 16 17 17 17
2 1 1 2 2 2 2 2 2 2 2 2 2 2 2 2 2 2 3 3 3 2 2 0 1 2 1 2 2 2 1 0 2 2 1 2 3 3 2 1 1 2 3 3 2 2 3 3 3 4 5 9 12 13 13 13 13 12 11 11 11 11 11 11 11 12 12 13 13 14 14 15 15 15 16 16 16 16 16 16 16 16 16 16 17 17
1 1 1 2 2 3 2 2 2 3 3 2 2 1 1 2 3 3 2 2 2 2 1 2 2 2 2 2 2 2 2 0 1 2 1 1 2 3 2 1 1 2 3 3 2 2 3 4 4 4 4 7 10 12 12 12 11 11 10 10 10 10 10 11 12 12 13 14 14 15 15 15 15 15 15 15 16 16 16 16 16 16 16 16 17 17
2 1 0 1 2 3 4 3 2 2 3 3 2 2 2 2 2 2 2 1 1 0 1 2 2 2 2 2 2 2 2 1 0 1 1 1 2 3 3 1 1 2 3 3 3 3 4 5 4 3 3 4 7 9 10 10 10 9 9 9 10 10 11 12 13 14 14 15 15 15 15 15 15 15 15 15 15 15 15 16 16 16 16 16 16 16
6 6 7 8 9 9 10 10 9 8 5 2 2 2 3 2 2 1 0 1 1 0 1 2 2 3 2 2 2 2 2 1 1 1 2 1 1 2 3 2 1 2 3 4 4 4 5 5 4 3 3 3 3 5 7 8 8 8 9 10 11 12 12 13 14 15 15 15 15 15 15 15 15 15 15 15 15 15 16 16 16 16 16 15 14 13
9 9 9 10 10 10 10 10 10 10 10 8 7 4 1 2 2 1 2 1 1 0 1 2 3 3 2 2 2 2 2 2 1 1 2 1 1 2 2 2 1 2 3 4 5 5 6 5 4 3 2 2 1 2 4 6 7 8 9 11 12 13 14 14 14 15 15 15 15 15 15 15 15 15 15 15 16 16 16 16 16 16 15 12 9 7
8 8 8 8 8 9 9 8 9 9 9 9 9 7 3 2 2 2 2 2 1 1 2 3 3 3 3 3 2 2 2 2 1 1 2 1 0 2 2 2 1 2 2 4 4 4 3 3 2 2 2 1 1 1 3 4 5 7 9 11 12 13 14 14 14 14 14 14 14 14 15 15 15 15 15 16 16 16 16 16 16 14 11 9 7 5
5 6 6 6 7 7 6 6 6 7 8 8 8 6 4 2 2 3 3 3 2 2 2 3 3 3 2 2 2 2 2 2 1 1 3 2 0 1 1 2 2 1 2 3 4 4 3 2 2 1 1 2 2 2 2 3 3 4 6 8 10 11 12 13 13 14 14 14 14 14 14 15 15 15 16 16 16 16 16 17 15 12 8 6 5 5
3 3 3 4 4 4 4 4 4 5 6 7 6 5 3 1 2 3 3 3 3 3 3 3 2 2 2 2 2 2 2 3 1 1 3 2 1 1 1 1 2 1 0 2 2 3 4 3 2 2 1 2 2 3 3 3 3 3 3 4 5 7 10 11 12 12 12 13 13 14 14 15 15 16 16 16 16 16 17 17 15 12 7 6 5 5
2 2 2 3 3 3 3 3 3 3 4 4 4 3 2 0 1 2 3 3 3 4 3 3 3 2 2 2 2 2 2 3 2 2 3 1 1 1 1 1 1 2 1 0 1 2 3 3 3 3 3 3 4 4 4 4 3 3 3 3 4 5 8 9 10 10 10 11 12 13 14 15 15 16 16 16 16 17 17 17 15 12 8 6 5 6
2 2 2 3 3 3 3 3 3 3 3 3 2 2 2 1 1 1 2 2 3 3 4 3 3 2 2 3 3 3 3 3 3 4 4 2 1 1 1 1 2 2 1 1 2 2 3 4 4 5 5 5 4 4 4 4 3 3 3 3 3 4 6 6 7 7 8 9 10 11 13 14 15 15 16 16 17 17 17 17 16 14 10 7 6 6
2 2 3 3 3 3 3 3 3 3 3 2 2 2 1 1 1 1 1 2 2 3 3 3 3 3 2 2 3 3 3 3 3 4 4 2 1 2 2 2 2 2 2 2 2 2 3 4 5 5 6 5 5 4 3 3 3 3 2 3 3 3 4 4 4 5 6 6 6 7 8 10 11 13 14 15 15 16 16 17 17 16 14 10 8 7
2 3 3 3 3 3 4 3 3 3 3 2 2 2 2 1 1 1 1 1 2 2 3 3 3 3 3 2 3 3 3 3 3 4 4 3 2 2 2 2 2 2 3 3 3 3 3 4 5 6 6 6 5 4 3 3 3 2 2 2 3 3 4 3 4 4 5 5 5 5 5 5 6 8 9 11 13 14 16 16 17 17 17 15 12 10
2 2 2 2 3 3 3 3 3 3 3 2 2 2 2 2 2 2 1 2 2 3 3 3 3 3 3 3 3 3 4 3 3 4 4 3 2 2 3 3 2 2 3 3 3 3 4 5 6 7 7 7 6 5 4 2 2 2 2 3 3 4 4 4 4 4 4 5 5 5 4 4 5 6 7 10 13 15 16 16 17 17 17 17 16 14
2 2 2 2 2 2 2 2 2 2 2 2 3 3 3 3 3 3 2 2 2 3 3 4 4 4 4 3 3 3 4 3 3 3 4 3 3 3 3 3 3 3 3 3 4 4 4 5 6 7 7 6 6 5 4 3 3 3 4 4 4 4 5 5 5 5 5 5 5 5 5 4 5 6 7 10 12 13 15 16 16 16 17 17 17 17
1 2 2 2 1 1 2 2 2 2 2 2 3 3 3 3 3 3 3 3 3 3 3 3 3 4 5 5 5 4 4 4 4 4 5 4 4 4 4 4 4 4 3 3 4 4 5 6 6 7 6 6 6 6 6 5 5 5 5 4 4 5 5 5 5 4 4 5 6 6 7 6 6 5 6 7 7 7 8 8 10 12 14 14 15 17
1 1 2 2 1 1 1 2 2 3 3 3 3 3 3 3 3 3 3 3 3 4 4 4 3 4 5 5 6 6 6 5 5 5 5 5 4 4 4 4 4 4 4 4 4 4 5 6 6 6 6 6 7 7 6 6 6 7 7 6 5 5 4 4 4 4 4 4 6 7 7 6 5 5 5 5 5 5 5 5 6 7 8 7 9 12
1 1 2 2 2 2 3 3 3 3 3 3 3 3 3 3 3 3 3 3 3 3 3 3 3 3 4 5 5 6 6 5 5 5 5 4 4 4 4 4 4 4 4 4 4 5 5 6 7 7 7 7 7 7 6 6 7 7 8 7 6 5 4 4 4 4 4 4 5 6 6 5 5 5 5 5 5 5 5 5 5 5 5 5 6 7
2 2 2 3 3 3 3 4 3 3 2 2 2 2 2 2 2 3 3 2 2 2 2 2 2 3 3 3 4 4 5 5 5 5 4 5 5 5 4 4 4 4 5 5 5 5 6 6 7 7 7 7 8 8 9 8 9 9 10 8 7 7 7 7 6 6 5 5 5 6 6 6 7 7 7 7 6 6 6 6 6 6 6 6 5 5
2 3 3 3 3 3 3 3 2 2 1 1 1 1 2 2 2 2 2 2 2 2 2 1 1 2 3 3 3 4 4 5 5 6 6 6 6 6 5 5 5 4 5 5 6 6 6 6 7 7 7 7 7 8 8 9 9 9 9 8 9 9 9 8 6 4 4 5 5 6 7 7 7 6 7 7 7 7 7 7 8 8 8 7 6 5
3 3 3 3 3 3 2 2 2 1 1 1 1 2 2 2 2 2 2 2 2 2 2 2 2 2 3 3 3 3 3 4 4 5 5 5 6 6 6 6 6 5 5 5 5 6 6 7 7 7 7 7 7 8 10 9 9 8 8 8 8 8 6 5 4 4 5 6 6 6 6 6 7 7 7 7 7 6 6 8 9 10 10 8 6 6
3 2 2 2 2 2 1 1 1 1 1 2 2 2 2 2 2 2 2 2 2 2 2 2 2 2 3 4 3 3 3 3 3 3 4 5 5 6 6 6 6 6 5 5 5 5 6 7 7 7 6 7 7 8 9 9 9 8 8 8 8 8 7 6 6 6 6 7 6 6 6 6 7 7 7 8 7 6 6 6 7 7 8 7 7 7
2 2 2 2 2 2 1 1 1 1 1 2 2 2 2 2 2 2 2 2 2 2 2 2 2 2 3 3 3 3 2 2 2 2 3 4 6 6 6 5 5 6 6 6 6 6 6 6 7 6 6 7 8 9 9 9 9 9 9 9 9 9 9 8 8 8 8 8 7 6 6 6 6 7 8 8 8 7 6 7 7 7 7 6 6 7
2 2 2 2 2 2 3 3 2 2 1 2 2 2 2 2 2 2 2 2 2 2 2 2 2 3 3 4 4 4 3 3 3 3 3 3 4 4 4 5 5 5 5 6 6 7 7 7 7 7 7 7 8 9 9 9 9 9 9 9 9 8 8 8 8 8 7 8 8 7 7 6 6 7 8 9 9 8 8 7 7 7 7 6 7 7
2 2 2 2 2 2 3 3 3 3 2 2 2 2 2 2 2 2 2 2 2 2 3 2 2 3 4 4 4 4 4 5 4 3 3 3 3 3 3 4 5 6 6 6 7 7 8 8 8 7 7 8 9 9 9 9 9 9 9 9 8 8 8 8 7 7 7 8 7 7 6 6 6 7 9 9 9 9 8 7 7 7 7 7 7 7
3 3 2 2 2 2 3 3 3 3 3 3 3 3 3 3 3 3 3 2 2 3 3 3 3 3 4 4 4 4 5 5 5 4 3 3 3 3 3 3 4 5 6 7 8 8 8 9 9 9 9 9 9 9 9 9 9 9 8 8 8 8 9 8 7 7 7 7 7 6 4 5 6 8 8 9 9 9 9 8 8 7 6 7 7 7
2 2 2 2 2 2 3 3 3 3 3 3 3 3 3 4 5 5 3 2 2 2 3 3 3 4 4 4 4 5 6 6 5 4 4 3 3 3 2 3 3 4 5 6 6 7 7 9 10 10 10 10 10 10 10 10 9 8 8 8 8 8 8 8 8 7 7 7 6 6 5 5 6 7 7 9 10 11 11 10 9 8 7 7 7 8
2 2 2 2 2 3 3 3 4 4 4 4 4 3 3 3 3 3 3 2 2 2 3 3 4 4 5 5 5 5 5 5 5 4 4 3 2 2 3 3 3 4 4 4 4 4 5 6 7 9 11 12 12 11 10 10 9 8 8 8 7 7 8 8 8 7 6 7 7 6 6 6 6 6 6 8 10 12 12 11 10 9 7 6 7 7
2 2 2 2 2 3 3 3 4 4 4 4 4 4 4 3 2 2 2 2 2 2 3 3 4 4 5 5 5 6 6 5 5 5 4 3 3 3 3 4 4 4 4 4 4 4 3 4 4 5 8 11 13 12 9 8 7 7 7 7 6 6 6 7 7 6 7 7 7 7 6 6 6 6 6 7 9 11 11 11 10 9 7 6 6 7
Wind_Direction
73 96 107 119 120 120 122 124 120 112 92 67 61 72 97 109 111 111 113 101 91 84 83 84 81 71 295 265 262 262 262 262 263 263 263 263 263 263 263 264 265 267 270 275 280 285 290 291 290 289 288 287 286 285 285 285 285 285 286 286 287 288 289 289 290 291 292 294 295 295 296 296 296 295 295 295 293 292 290 288 286 285 283 282 282 282
54 72 83 110 117 122 124 125 125 124 119 98 79 72 76 85 87 85 82 86 86 87 89 94 103 142 247 260 262 262 262 262 262 262 262 263 264 264 265 266 268 271 277 283 289 293 295 295 293 290 288 286 284 283 283 283 283 284 284 284 285 286 286 287 289 290 292 293 294 295 295 294 293 291 290 288 286 284 282 280 280 280 280 281 281 281
48 62 65 90 103 109 113 110 102 98 103 100 90 81 80 84 84 82 78 83 87 92 102 121 159 206 232 253 261 263 263 262 262 263 263 264 265 266 268 270 273 279 285 292 296 298 298 295 292 289 286 283 282 281 280 281 281 281 281 281 282 283 284 285 286 288 289 290 290 290 290 289 287 285 284 282 280 280 279 279 280 281 282 282 283 283
51 62 58 60 64 69 77 88 86 83 85 87 85 82 82 86 89 90 89 90 92 101 128 166 201 220 234 251 262 265 265 265 265 265 265 266 267 270 273 276 282 288 294 298 299 299 298 294 290 286 282 280 279 278 278 278 278 279 280 280 281 283 284 285 286 286 287 287 286 285 285 283 282 281 280 280 280 281 281 282 282 283 283 283 283 282
41 48 48 48 52 56 55 68 77 83 83 82 81 79 75 78 83 88 92 97 109 137 189 205 217 225 233 245 259 263 265 266 266 266 266 269 273 278 283 287 292 296 299 300 299 298 295 291 286 283 280 278 277 277 277 278 279 280 282 283 284 286 287 287 287 288 287 287 286 285 284 283 281 281 281 281 282 282 283 283 283 283 282 282 281 281
47 41 43 47 52 58 53 58 69 77 80 77 76 75 70 69 74 86 100 122 155 192 215 219 222 226 230 237 250 257 261 263 264 265 268 275 284 292 296 298 299 300 301 300 298 296 292 288 284 281 279 278 278 279 280 281 283 285 287 289 289 290 290 290 290 289 289 288 287 286 284 284 283 282 282 282 282 282 282 282 282 282 282 281 281 281
61 48 48 53 56 59 55 54 65 77 85 83 79 75 71 69 71 82 126 186 213 226 235 232 229 229 231 239 247 253 258 261 264 269 280 296 307 310 308 306 304 303 302 300 297 295 291 287 284 283 282 282 283 285 286 288 289 291 292 292 292 292 291 290 289 288 287 287 286 285 284 283 282 282 281 281 280 280 281 281 281 281 281 281 281 281
77 62 52 60 66 67 62 57 64 75 88 92 92 87 79 77 84 143 229 246 247 243 245 239 235 230 227 236 244 250 255 258 265 294 332 337 331 323 315 312 310 308 305 302 298 295 292 290 288 288 288 289 290 290 292 292 293 294 294 293 292 291 290 288 287 286 285 284 283 283 282 281 280 280 279 279 279 279 279 280 280 280 280 280 280 280
76 70 51 51 62 75 79 61 49 58 77 92 100 105 109 123 160 206 220 236 234 231 230 230 228 225 221 225 242 252 254 245 228 97 37 17 340 325 321 321 317 313 308 304 300 297 295 294 293 293 293 293 293 293 293 293 293 293 293 292 290 289 287 286 285 284 283 282 281 280 280 279 278 278 277 277 277 277 277 277 278 278 278 278 279 279
69 71 66 47 48 64 91 91 73 60 70 92 107 123 148 172 197 224 242 239 230 218 208 217 213 209 205 222 255 274 277 295 331 2 16 3 346 334 332 331 325 317 310 306 302 300 298 296 295 295 294 293 292 292 292 292 292 291 290 289 287 286 285 283 282 281 281 280 279 279 278 277 277 276 276 276 276 276 275 275 275 276 276 276 277 277
73 76 88 79 57 53 93 117 123 109 88 87 80 240 224 212 212 223 242 242 234 218 213 226 211 199 189 218 302 336 353 355 355 356 1 354 349 344 342 335 327 318 311 306 303 300 298 296 294 293 293 292 291 291 291 291 291 289 288 286 285 283 282 281 280 279 279 278 278 277 277 277 276 276 275 275 275 275 275 275 275 275 275 275 276 276
104 106 111 124 128 123 114 110 110 109 110 113 203 248 243 225 211 209 224 226 218 212 247 269 267 236 160 53 357 0 14 10 359 348 346 345 346 349 347 338 326 317 310 305 301 298 296 294 293 293 293 293 293 293 293 292 291 289 287 285 283 281 280 279 278 278 278 277 278 278 278 277 277 277 276 276 276 276 276 275 275 275 275 276 276 277
103 114 112 121 134 148 154 138 130 142 160 183 207 222 230 217 186 175 187 182 180 210 288 317 321 328 0 25 18 11 12 2 350 338 337 331 334 345 353 334 317 307 303 300 294 290 289 291 292 293 294 295 295 296 296 294 292 289 287 284 282 280 279 278 278 278 278 279 279 280 280 280 279 278 278 277 277 277 277 277 277 277 278 278 278 279
84 84 84 85 106 170 180 168 177 184 194 199 209 215 208 154 117 114 114 95 44 353 357 4 344 331 338 352 6 19 31 8 354 346 339 317 301 299 340 301 289 283 281 283 280 277 278 284 288 291 292 294 295 295 294 292 291 288 286 284 282 281 280 280 280 280 281 282 282 282 282 281 281 280 279 279 279 279 279 280 280 280 280 280 280 281
87 85 79 68 292 258 238 200 195 198 203 224 285 347 57 63 73 86 100 82 16 358 19 19 359 337 329 328 339 13 59 50 26 356 332 304 280 236 176 267 276 274 266 267 269 271 275 278 278 279 282 284 285 286 286 286 286 286 286 284 284 283 283 283 283 283 284 283 283 283 283 282 282 281 281 281 281 281 281 281 281 281 281 281 281 281
105 105 113 168 256 269 277 256 220 224 259 314 344 25 65 63 59 72 96 97 46 25 39 32 10 340 322 325 339 19 70 71 63 13 320 294 278 226 158 214 267 273 265 260 262 266 271 269 265 264 269 277 281 284 286 286 286 287 287 287 287 287 287 287 286 285 285 284 284 284 284 283 283 283 283 282 282 282 281 281 281 280 280 280 280 279
111 116 134 180 254 275 289 293 263 217 237 335 12 36 61 67 77 86 97 97 73 57 60 73 60 338 310 316 324 348 67 80 80 331 296 287 277 242 157 184 245 265 267 262 260 261 265 266 265 264 266 273 279 284 288 289 289 290 290 290 290 289 289 288 287 286 285 285 285 285 285 285 285 284 284 283 283 282 281 280 280 279 279 278 278 278
100 121 131 163 240 268 284 296 296 292 332 40 39 40 45 41 56 76 90 99 98 92 87 95 118 168 262 292 293 293 69 96 87 308 297 287 280 260 172 187 223 251 263 262 259 256 255 257 257 260 266 278 284 288 291 293 293 292 292 292 291 289 289 288 287 286 285 285 285 285 285 285 284 284 283 283 282 282 281 280 280 279 279 278 278 278
124 151 147 176 216 254 285 286 275 251 169 144 115 86 48 20 30 51 68 93 114 123 126 127 147 192 206 247 260 267 122 113 97 304 295 286 281 268 195 194 222 242 255 257 255 253 250 252 258 264 272 283 288 292 294 294 293 292 292 291 290 289 288 287 286 286 285 285 284 284 283 283 283 282 282 282 282 282 282 281 281 281 280 280 280 280
152 228 202 184 172 169 322 282 250 220 190 165 131 106 82 42 33 41 54 75 103 119 126 138 175 216 218 243 259 269 211 98 74 306 282 279 276 270 227 197 221 244 259 256 252 248 246 252 262 272 279 285 289 292 293 292 292 291 290 290 289 288 287 286 285 285 284 284 284 283 283 283 283 282 282 282 282 282 282 282 283 282 282 282 282 281
148 229 224 182 154 131 200 250 237 215 179 141 113 94 88 71 50 35 39 96 102 106 113 159 205 217 211 241 258 263 190 108 91 303 284 282 278 275 258 190 207 245 264 262 258 252 248 254 260 267 274 283 287 289 290 291 291 290 290 289 288 287 286 285 284 284 284 284 284 284 284 283 283 283 283 283 283 283 283 283 283 283 282 282 282 281
148 203 215 181 166 162 192 221 220 200 168 137 121 115 136 139 155 210 209 173 166 172 184 208 217 218 206 240 254 255 183 140 144 190 290 293 287 283 282 179 199 248 262 265 265 263 256 256 257 263 270 281 286 288 290 290 290 290 289 288 287 286 285 284 285 285 285 286 286 285 285 286 285 285 285 284 284 283 283 283 282 282 281 281 281 280
138 171 200 186 183 187 199 210 208 194 173 160 156 162 171 170 176 187 187 179 179 183 192 207 223 235 233 255 266 271 217 162 146 139 140 276 278 280 285 306 287 267 262 263 267 272 273 264 258 262 271 281 285 287 289 289 289 288 287 287 286 285 286 286 286 287 288 288 289 289 289 289 288 288 287 286 285 284 283 282 282 281 281 281 280 280
122 153 193 201 204 205 206 210 206 195 184 179 175 169 164 165 163 161 160 158 156 154 157 128 357 346 320 308 304 303 297 145 125 125 137 251 265 273 284 311 303 285 273 264 265 275 287 279 269 261 265 276 281 284 287 288 288 288 287 287 287 288 288 289 290 291 292 293 293 293 292 291 290 289 288 286 285 284 283 283 282 282 282 281 281 280
134 171 218 221 220 220 218 219 210 200 187 181 165 137 122 125 120 111 102 103 107 106 86 29 3 345 326 333 324 310 299 343 120 131 147 247 269 278 284 290 290 285 282 279 279 287 293 288 280 268 259 269 276 281 285 287 289 290 290 290 291 293 294 295 296 296 296 296 295 294 293 292 291 290 288 287 286 285 284 284 283 283 283 283 282 282
100 95 7 348 338 338 350 342 308 252 203 184 166 147 133 123 110 98 87 98 100 55 329 327 318 307 301 315 306 292 284 289 168 153 151 226 280 289 289 292 285 286 290 291 293 295 293 288 282 272 257 261 272 279 285 290 293 295 296 297 299 300 301 300 300 299 298 297 296 295 294 293 292 291 289 288 287 286 286 286 285 285 285 284 283 283
40 31 24 17 11 6 3 355 346 337 321 285 226 186 148 136 124 113 202 192 185 242 289 287 288 290 295 295 281 272 274 274 233 177 149 148 286 289 290 304 320 315 303 299 296 290 285 282 278 272 262 259 271 284 292 298 302 305 307 306 305 305 304 302 301 300 299 297 296 295 294 294 292 291 290 290 289 288 288 287 287 286 286 285 284 283
31 27 23 19 15 10 5 358 350 342 334 319 309 303 107 129 140 196 240 224 194 194 256 265 276 284 290 280 269 265 270 267 243 177 130 112 260 272 279 305 328 327 314 305 297 288 279 273 270 268 269 275 293 303 302 308 312 315 313 309 307 305 303 302 301 299 298 297 296 295 294 294 293 292 292 291 290 290 289 289 289 288 287 286 284 283
26 23 22 18 15 11 6 359 351 342 334 324 320 326 14 107 154 198 224 189 162 177 238 249 257 265 274 279 283 286 286 272 250 151 114 106 232 266 278 312 325 326 325 313 306 297 283 270 264 264 273 289 295 295 294 309 313 313 309 306 304 302 301 300 299 298 296 296 295 294 294 294 294 293 293 292 292 291 290 290 290 289 288 286 284 282
10 10 11 8 7 5 2 354 345 340 336 331 330 337 15 101 159 179 183 156 150 168 214 236 243 250 262 285 300 308 301 282 255 148 115 116 213 272 293 317 316 318 342 330 321 312 303 292 277 264 267 284 286 285 285 298 300 299 299 299 298 297 296 296 296 295 295 294 294 294 294 294 294 293 293 292 292 291 291 290 290 289 287 284 281 279
352 353 348 344 345 347 348 342 336 334 335 338 342 350 11 101 157 165 158 150 153 165 188 208 220 226 231 260 285 294 289 277 251 152 122 130 206 259 264 305 300 293 317 352 333 318 311 306 295 278 274 295 300 300 298 295 291 286 282 285 287 288 290 292 293 294 294 294 294 294 294 293 293 293 292 292 291 290 290 290 289 288 284 281 278 275
340 342 333 325 326 331 336 336 334 332 331 337 341 344 343 353 168 168 162 161 161 165 175 189 200 208 209 223 235 246 256 263 231 172 137 144 223 251 213 265 285 281 235 285 299 295 300 301 301 301 305 309 307 303 299 292 285 278 275 275 276 280 285 289 292 293 294 294 294 293 292 292 292 291 291 290 290 289 288 288 287 286 282 278 274 271
341 337 330 330 332 334 334 335 334 331 328 328 328 329 333 329 279 204 182 175 170 167 168 179 191 204 215 227 237 245 252 254 220 192 172 175 232 262 249 270 285 289 282 266 251 252 265 284 296 305 308 306 303 299 295 290 283 276 270 273 275 278 284 287 289 290 289 290 290 290 290 290 289 289 288 288 288 287 286 286 285 283 280 276 271 269
351 345 341 341 340 338 335 334 333 331 328 324 323 325 333 328 315 287 230 201 187 178 171 175 183 194 213 233 248 255 257 252 235 221 209 212 243 271 281 282 287 290 293 282 269 261 263 274 287 296 301 301 299 296 294 290 284 278 266 264 269 277 281 284 283 282 282 283 283 284 284 284 284 284 284 284 284 284 284 283 282 280 278 275 271 269
356 349 344 345 342 338 334 333 333 331 329 324 321 323 329 325 313 295 262 230 213 201 191 186 185 191 203 227 249 260 262 255 248 245 240 240 254 273 282 277 279 283 287 283 281 279 277 278 283 288 295 298 299 297 292 283 279 277 269 262 265 271 276 278 280 281 282 281 278 275 272 271 271 273 275 277 279 280 280 281 281 280 279 278 277 275
356 344 334 336 336 332 326 324 325 326 324 315 312 312 319 316 307 290 270 249 236 231 228 223 218 213 212 225 242 255 263 259 253 251 253 252 255 264 273 271 271 274 278 279 280 280 282 284 285 286 288 291 294 296 295 287 284 285 285 278 275 275 276 275 275 276 279 280 278 274 268 264 261 262 266 273 276 278 280 282 282 282 282 281 280 279
355 329 312 314 314 313 309 308 309 309 308 303 304 308 311 308 302 294 283 265 253 249 248 251 250 247 243 241 243 250 259 263 260 258 258 254 253 255 262 268 269 267 266 273 278 281 283 285 286 285 282 282 286 292 300 304 303 297 291 286 283 280 279 275 271 269 272 275 276 276 274 270 267 266 268 274 278 281 283 284 284 283 283 282 281 280
348 313 296 292 287 285 286 287 283 279 278 284 291 297 301 297 293 288 284 272 261 254 252 256 258 259 259 259 258 256 257 258 257 255 253 249 247 248 255 264 266 264 259 264 271 276 278 281 284 285 283 281 282 287 295 302 303 300 295 289 283 278 273 270 266 263 264 270 275 278 279 278 276 274 275 277 278 280 280 279 278 278 280 279 279 279
305 285 279 272 260 245 244 253 258 260 261 268 276 283 288 286 283 277 271 264 257 249 244 247 252 259 262 263 263 261 258 251 246 243 241 239 238 242 250 258 263 264 261 259 261 263 266 270 274 279 284 286 288 289 291 293 295 297 298 295 288 279 270 267 265 264 263 269 276 280 282 280 278 275 273 272 270 269 270 269 269 270 273 275 277 278
256 260 262 253 238 224 224 238 248 257 265 277 287 292 293 291 291 288 280 271 262 253 244 242 247 256 260 260 260 259 256 248 240 236 233 230 230 234 242 251 259 263 262 257 254 254 256 262 267 272 276 282 287 290 291 290 291 294 299 299 295 290 287 287 283 278 272 272 275 279 281 279 275 272 273 274 273 273 274 275 275 273 273 274 276 279
228 244 255 255 249 239 233 240 248 259 268 287 304 313 310 311 313 314 314 309 299 285 272 263 265 271 274 267 259 253 249 247 242 238 236 232 231 233 239 246 253 258 260 257 254 252 253 259 265 270 272 277 281 284 285 286 288 291 294 293 292 293 295 292 289 284 280 277 277 279 283 286 286 286 284 284 282 280 278 278 278 276 275 270 269 271
232 241 251 253 252 249 247 254 263 268 266 293 320 320 310 310 309 310 313 314 309 302 295 292 291 292 295 286 274 260 248 244 242 240 241 237 235 235 238 243 247 252 256 258 257 256 255 259 263 268 272 276 280 282 282 283 284 285 286 287 290 293 293 288 283 280 281 282 283 285 287 288 288 287 286 283 280 277 275 272 271 272 272 269 264 261
236 238 244 243 243 242 247 265 284 305 337 350 331 310 296 293 292 291 292 287 284 283 283 278 277 282 288 287 283 274 261 250 245 243 243 239 236 235 237 240 243 246 250 256 260 261 260 259 261 264 268 272 275 277 280 283 284 283 280 282 287 292 293 290 288 285 283 284 284 284 284 283 282 281 280 279 277 275 273 271 270 269 269 269 266 261
232 243 252 248 243 242 256 276 312 334 342 326 310 299 291 286 283 283 282 274 272 275 278 276 276 279 281 284 284 280 272 265 260 259 259 251 242 236 236 237 239 242 242 249 257 263 266 263 262 262 265 268 271 273 276 280 282 282 280 279 278 278 277 286 292 294 289 285 282 279 277 278 280 281 280 279 277 274 271 268 266 264 263 262 261 260
237 255 263 264 266 269 281 290 295 300 299 291 287 286 286 284 282 278 271 269 272 275 274 279 287 290 286 288 290 291 289 289 290 291 288 276 264 254 242 237 237 239 241 243 248 255 262 266 268 268 268 267 266 268 272 276 279 280 279 277 275 273 271 278 283 285 285 283 282 279 277 277 279 281 281 279 277 275 271 268 266 265 262 258 256 255
254 262 263 271 283 290 291 288 283 276 268 269 272 274 277 277 275 270 263 263 268 272 274 274 279 284 287 294 300 305 305 301 298 294 292 289 282 271 255 243 240 241 243 244 246 248 251 258 265 270 273 270 267 265 265 270 274 277 278 278 277 276 275 276 276 277 279 280 280 279 278 278 278 278 279 279 279 277 272 269 266 265 263 259 256 254
256 260 261 265 271 277 280 281 279 276 272 270 270 271 273 273 272 268 263 261 264 271 276 274 274 278 285 293 299 302 302 299 296 290 284 282 282 278 269 256 249 246 247 248 249 248 248 250 253 258 265 269 270 269 266 266 268 271 275 277 277 276 275 275 275 274 275 275 276 277 279 279 277 276 277 278 279 278 275 270 266 262 261 260 258 257
260 265 267 269 273 275 276 277 280 282 282 281 279 276 274 273 273 273 269 266 271 280 288 288 287 286 285 286 286 287 288 290 291 289 287 282 276 273 269 263 257 253 252 252 252 251 250 248 247 248 252 259 265 269 270 268 266 267 270 273 274 274 274 274 275 274 272 271 270 269 270 272 273 275 278 279 279 279 278 276 272 268 264 263 262 262
268 270 273 276 276 277 279 281 282 281 280 281 281 279 274 273 277 280 278 278 281 286 289 288 287 285 283 280 280 280 281 284 285 285 283 278 273 270 269 266 262 260 260 257 255 254 253 250 246 242 241 246 254 262 268 268 267 266 267 268 269 270 272 274 275 274 273 272 269 265 262 264 266 270 275 278 279 280 281 280 278 274 270 266 265 264
280 273 269 267 266 268 272 275 277 277 277 280 281 280 276 271 270 269 267 269 272 275 276 279 281 281 281 280 280 279 278 278 279 279 277 271 268 269 274 275 276 276 275 271 266 264 262 258 250 242 237 238 243 250 261 265 267 267 266 265 265 267 271 274 276 276 276 277 275 272 267 267 267 267 269 273 277 279 282 281 280 277 274 271 268 267
283 278 272 263 261 263 267 270 271 272 274 277 279 279 276 271 264 258 253 259 268 274 277 277 278 278 278 278 277 275 273 273 275 276 278 274 272 273 278 280 283 285 286 285 284 281 279 279 273 260 247 241 240 242 251 258 264 268 268 265 264 265 269 273 275 276 276 276 276 275 273 271 270 268 266 270 275 279 281 281 281 280 278 276 273 271